DW8780 Weather Reports


Display with metric or nautical units.
time (UTC)temp
F
wind
direction
speed
MPH
gust
MPH
rain 1hr
in
rain 24hr
in
rain mn
in
humidity
%
barometer
mb
20260504231502 72 357 4.0 12.0 0.00 0.00 0.00 36 1012.0
20260504231003 72 351 3.0 11.0 0.00 0.00 0.00 36 1012.0
20260504230002 72 344 2.0 9.0 0.00 0.00 0.00 35 1012.0
20260504225003 73 345 4.0 14.0 0.00 0.00 0.00 34 1012.0
20260504224003 73 340 5.0 13.0 0.00 0.00 0.00 33 1011.9
20260504223502 74 349 6.0 22.0 0.00 0.00 0.00 33 1011.9
20260504223003 74 352 5.0 22.0 0.00 0.00 0.00 33 1012.0
20260504222502 74 353 4.0 12.0 0.00 0.00 0.00 33 1011.9
20260504222003 74 353 4.0 14.0 0.00 0.00 0.00 32 1012.1
20260504221003 74 355 5.0 13.0 0.00 0.00 0.00 32 1012.1
20260504220003 74 351 4.0 11.0 0.00 0.00 0.00 33 1012.1
20260504215503 74 355 5.0 16.0 0.00 0.00 0.00 33 1012.2
20260504215003 74 355 5.0 16.0 0.00 0.00 0.00 33 1012.3
20260504214503 75 351 3.0 9.0 0.00 0.00 0.00 34 1012.2
20260504214002 75 3 3.0 12.0 0.00 0.00 0.00 35 1012.2
20260504213503 75 354 3.0 12.0 0.00 0.00 0.00 35 1012.2
20260504213002 75 343 3.0 11.0 0.00 0.00 0.00 34 1012.3
20260504212503 75 345 4.0 11.0 0.00 0.00 0.00 34 1012.3
20260504212002 75 344 4.0 9.0 0.00 0.00 0.00 35 1012.3
20260504210503 75 359 4.0 15.0 0.00 0.00 0.00 34 1012.2
20260504210003 75 357 4.0 13.0 0.00 0.00 0.00 35 1012.3
20260504205502 75 354 4.0 12.0 0.00 0.00 0.00 33 1012.3
20260504205003 75 351 3.0 12.0 0.00 0.00 0.00 34 1012.3
20260504204502 75 346 4.0 9.0 0.00 0.00 0.00 34 1012.3
20260504204003 74 346 4.0 11.0 0.00 0.00 0.00 35 1012.4
20260504203003 74 353 4.0 12.0 0.00 0.00 0.00 34 1012.5
20260504202003 75 359 5.0 16.0 0.00 0.00 0.00 34 1012.6
20260504201504 74 6 6.0 18.0 0.00 0.00 0.00 35 1012.6
20260504201003 74 2 6.0 18.0 0.00 0.00 0.00 34 1012.6
20260504200506 74 354 4.0 17.0 0.00 0.00 0.00 34 1012.6
20260504200003 74 356 5.0 17.0 0.00 0.00 0.00 36 1012.6
20260504195502 74 1 5.0 16.0 0.00 0.00 0.00 33 1012.8
20260504195003 74 356 5.0 15.0 0.00 0.00 0.00 35 1012.9
20260504194002 74 5 6.0 16.0 0.00 0.00 0.00 35 1012.7
20260504193503 74 354 5.0 16.0 0.00 0.00 0.00 34 1012.9
20260504193003 74 338 4.0 11.0 0.00 0.00 0.00 33 1013.0
20260504191503 74 347 3.0 8.0 0.00 0.00 0.00 33 1013.2
20260504191002 74 357 4.0 14.0 0.00 0.00 0.00 34 1013.2
20260504190503 74 358 5.0 14.0 0.00 0.00 0.00 34 1013.2
20260504190003 74 353 4.0 13.0 0.00 0.00 0.00 37 1013.2
20260504185502 74 352 4.0 13.0 0.00 0.00 0.00 32 1013.4
20260504185002 74 354 3.0 11.0 0.00 0.00 0.00 35 1013.3
20260504184503 74 356 3.0 11.0 0.00 0.00 0.00 34 1013.5
20260504184002 74 350 3.0 9.0 0.00 0.00 0.00 32 1013.6
20260504183502 74 348 4.0 9.0 0.00 0.00 0.00 32 1013.6
20260504183003 74 352 3.0 9.0 0.00 0.00 0.00 32 1013.7
20260504182502 74 349 4.0 10.0 0.00 0.00 0.00 34 1013.8
20260504182003 74 350 4.0 10.0 0.00 0.00 0.00 34 1013.8
20260504181002 74 350 3.0 9.0 0.00 0.00 0.00 34 1013.8
20260504180503 74 349 3.0 9.0 0.00 0.00 0.00 33 1013.8
20260504180003 74 344 3.0 10.0 0.00 0.00 0.00 34 1013.8
20260504175503 73 348 3.0 11.0 0.00 0.00 0.00 33 1013.9
20260504175003 73 345 3.0 11.0 0.00 0.00 0.00 34 1013.8
20260504174502 73 342 3.0 9.0 0.00 0.00 0.00 33 1013.8
20260504174003 73 347 3.0 7.0 0.00 0.00 0.00 37 1013.8
20260504173503 73 347 3.0 7.0 0.00 0.00 0.00 36 1013.9
20260504173002 73 338 2.0 6.0 0.00 0.00 0.00 38 1014.1
20260504172504 73 338 3.0 9.0 0.00 0.00 0.00 34 1014.1
20260504172002 73 341 3.0 9.0 0.00 0.00 0.00 34 1014.1
20260504171503 73 336 3.0 9.0 0.00 0.00 0.00 34 1014.2
20260504171002 73 337 3.0 11.0 0.00 0.00 0.00 34 1014.3
20260504170503 73 346 4.0 11.0 0.00 0.00 0.00 33 1014.5
20260504151003 70 332 3.0 8.0 0.00 0.00 0.00 48 1015.3
20260504150503 69 326 3.0 8.0 0.00 0.00 0.00 47 1015.3
20260504141002 67 349 4.0 14.0 0.00 0.00 0.00 47 1015.4
20260504140503 67 336 4.0 12.0 0.00 0.00 0.00 50 1015.6
20260504130503 61 339 2.0 7.0 0.00 0.00 0.00 69 1016.5
20260504110503 52 15 2.0 6.0 0.00 0.00 0.00 81 1017.3
20260504100502 51 359 2.0 7.0 0.00 0.00 0.00 82 1016.9
20260504081503 50 357 3.0 7.0 0.00 0.00 0.00 82 1017.5
20260504081003 50 2 3.0 6.0 0.00 0.00 0.00 82 1017.5
20260504080503 50 10 2.0 6.0 0.00 0.00 0.00 82 1017.5
20260504050504 45 26 1.0 4.0 0.00 0.00 0.00 73 1017.6
20260504050003 45 28 2.0 4.0 0.00 0.00 0.00 73 1017.6
20260504045503 45 16 2.0 4.0 0.00 0.00 0.00 73 1017.5
20260504045002 45 13 1.0 4.0 0.00 0.00 0.00 73 1017.6
20260504044503 45 14 1.0 3.0 0.00 0.00 0.00 73 1017.5
20260504043503 45 34 1.0 3.0 0.00 0.00 0.00 72 1017.4
20260504043004 45 11 1.0 3.0 0.00 0.00 0.00 72 1017.4
20260504042503 44 3 1.0 3.0 0.00 0.00 0.00 72 1017.3
20260504042003 45 353 1.0 3.0 0.00 0.00 0.00 72 1017.3
20260504041504 45 356 0.0 2.0 0.00 0.00 0.00 72 1017.3
20260504040504 45 70 0.0 2.0 0.00 0.00 0.00 70 1017.1
20260504040002 45 52 1.0 2.0 0.00 0.00 0.00 70 1017.1
20260504035503 45 12 1.0 2.0 0.00 0.00 0.00 69 1016.9
20260504034503 46 5 1.0 2.0 0.00 0.00 0.00 69 1017.0
20260504034003 46 3 1.0 3.0 0.00 0.00 0.00 68 1017.0
20260504033502 46 11 1.0 3.0 0.00 0.00 0.00 68 1016.8
20260504033003 46 13 1.0 3.0 0.00 0.00 0.00 68 1016.8
20260504032502 46 11 1.0 2.0 0.00 0.00 0.00 67 1016.9
20260504032003 46 8 0.0 2.0 0.00 0.00 0.00 68 1016.8
20260504031504 46 68 0.0 2.0 0.00 0.00 0.00 67 1016.8
20260504031002 47 63 1.0 2.0 0.00 0.00 0.00 66 1016.8
20260504030503 47 3 1.0 2.0 0.00 0.00 0.00 65 1016.7
20260504030002 47 1 1.0 2.0 0.00 0.00 0.00 64 1016.8
20260504025503 47 3 1.0 2.0 0.00 0.00 0.00 64 1016.8
20260504025002 47 4 1.0 2.0 0.00 0.00 0.00 64 1016.7
20260504024503 48 2 1.0 2.0 0.00 0.00 0.00 64 1016.8
20260504024002 48 5 1.0 2.0 0.00 0.00 0.00 62 1016.8
20260504023503 48 6 1.0 2.0 0.00 0.00 0.00 61 1016.8
20260504022504 48 4 1.0 3.0 0.00 0.00 0.00 59 1016.7
20260504022002 48 4 1.0 3.0 0.00 0.00 0.00 60 1016.7
20260504021502 48 11 1.0 4.0 0.00 0.00 0.00 59 1016.8
20260504021003 48 6 1.0 4.0 0.00 0.00 0.00 60 1016.7
20260504020503 48 1 1.0 3.0 0.00 0.00 0.00 60 1016.8
20260504015003 49 6 1.0 3.0 0.00 0.00 0.00 60 1016.6
20260504014502 49 13 1.0 2.0 0.00 0.00 0.00 59 1016.6
20260504014003 49 24 1.0 2.0 0.00 0.00 0.00 58 1016.6
20260504013502 50 6 1.0 3.0 0.00 0.00 0.00 59 1016.5
20260504013003 50 4 1.0 3.0 0.00 0.00 0.00 57 1016.5
20260504012003 50 4 0.0 2.0 0.00 0.00 0.00 55 1016.3
20260504011503 50 4 1.0 2.0 0.00 0.00 0.00 55 1016.3
20260504011003 51 10 1.0 2.0 0.00 0.00 0.00 54 1016.3
20260504010502 51 11 1.0 3.0 0.00 0.00 0.00 53 1016.3
20260504004503 52 6 0.0 2.0 0.00 0.00 0.00 52 1016.0
20260504003003 53 298 0.0 2.0 0.00 0.00 0.00 48 1015.9
20260504002502 54 318 0.0 2.0 0.00 0.00 0.00 47 1015.8
20260504002003 55 342 0.0 2.0 0.00 0.00 0.00 46 1015.7
20260504001503 55 350 0.0 2.0 0.00 0.00 0.00 47 1015.6
20260504001003 56 352 0.0 2.0 0.00 0.00 0.00 45 1015.5
20260504000504 56 337 0.0 2.0 0.00 0.00 0.00 43 1015.4
20260504000003 56 299 0.0 2.0 0.00 0.00 0.00 42 1015.4
20260503235503 57 290 0.0 2.0 0.00 0.00 0.00 41 1015.4
20260503235002 57 289 0.0 2.0 0.00 0.00 0.00 42 1015.3
20260503234504 58 297 0.0 2.0 0.00 0.00 0.00 39 1015.2
20260503234003 58 306 1.0 4.0 0.00 0.00 0.00 39 1015.3
20260503233502 58 309 1.0 4.0 0.00 0.00 0.00 38 1015.3
20260503233002 59 296 1.0 3.0 0.00 0.00 0.00 37 1015.3
20260503232503 59 289 1.0 4.0 0.00 0.00 0.00 36 1015.3
20260503232003 59 303 2.0 7.0 0.00 0.00 0.00 35 1015.3